Voltar ao catálogo

STARLINK-5168

AtivoComunicaçõesVLEO
NORAD 54071·PAYLOAD·🇺🇸 United States

Lançado Oct 20, 2022 de Cape Canaveral Space Force Station

Loading…

Próximas Passagens (próximas 24 horas)

TLE

AtualizadoSource: CelesTrak SupGP

Época: Sep 14, 2026, 22:09 UTC

1 54071C 22136W   26257.92340278 -.00023497  00000+0 -69422-3 0  2577
2 54071  53.1595 203.4760 0000905  99.2399 190.3361 15.34403639    16

Acompanhe STARLINK-5168 em tempo real com AllMySat

Download on the App Store